Theta_e
344 340 337 331 334 339 343 346 347 344 347 349 345 348 346 342 342 345 347 345 345 341 340 340 338 334 333 335 334 333 335 332 331 331 332 331 332 332 331 333 329 328 329
342 340 337 335 332 335 341 346 349 346 347 348 346 344 346 346 347 347 344 346 345 344 341 340 339 338 335 334 335 335 333 333 334 335 330 331 332 333 333 332 330 327 328
346 341 341 340 334 334 338 335 347 347 349 347 347 349 347 347 346 346 344 344 347 345 343 341 338 337 334 334 336 337 336 335 335 335 335 333 333 332 334 333 333 330 329
346 346 346 344 341 337 333 338 346 345 345 348 347 347 347 346 347 347 347 348 345 345 345 342 339 337 336 337 338 336 338 337 336 336 335 336 335 335 333 335 334 333 333
349 348 346 346 343 342 345 343 345 347 345 345 347 347 346 345 346 347 346 347 344 345 346 344 345 343 340 341 340 340 334 337 338 338 337 337 337 337 338 337 338 336 333
346 343 342 343 342 347 346 343 344 346 344 344 342 343 345 346 348 348 347 344 344 344 346 347 347 343 341 342 340 341 341 337 336 338 337 337 338 338 338 338 338 337 337
348 348 346 347 345 343 346 347 346 344 345 345 345 345 342 342 343 348 348 345 345 345 343 345 347 347 343 339 339 340 342 342 338 334 336 332 334 335 336 337 338 338 338
346 345 343 343 343 342 343 344 346 344 343 343 344 343 341 338 340 347 344 344 346 344 346 344 346 346 342 339 345 346 344 343 343 341 335 335 334 334 337 338 337 337 338
345 344 344 342 340 341 341 342 341 340 341 342 343 343 340 338 338 345 348 345 349 347 344 345 346 345 344 344 345 345 344 344 344 342 342 337 334 335 336 338 339 337 338
342 343 341 341 340 341 339 341 340 342 340 339 344 345 342 342 344 342 347 347 346 345 343 343 344 344 345 344 346 346 345 344 344 344 343 342 341 339 338 339 339 339 338
345 341 343 341 341 340 339 339 341 341 342 342 341 340 344 342 343 344 346 340 346 347 348 348 345 347 347 350 348 347 347 348 347 346 343 343 342 342 341 343 342 339 339
342 341 342 340 342 339 339 337 340 341 340 340 338 338 341 342 341 344 341 340 340 343 346 347 347 348 348 348 348 346 345 344 344 344 344 342 343 343 343 342 341 341 339
343 340 341 340 340 338 338 338 339 340 340 338 337 337 340 341 341 342 342 340 342 342 340 337 343 344 345 346 346 345 347 343 340 341 341 341 342 342 342 342 342 342 341
342 341 343 343 344 342 340 341 340 339 341 338 336 337 338 338 342 341 341 340 342 342 341 339 343 346 344 343 343 343 339 338 339 340 340 341 342 341 341 342 342 342 341
340 339 342 343 343 342 342 341 342 341 339 339 338 338 339 339 342 342 341 342 341 341 340 340 337 340 343 341 338 337 337 338 338 339 339 339 339 339 339 340 340 341 341
340 338 338 339 343 341 341 341 339 339 340 340 340 340 339 338 340 340 342 343 342 341 340 337 337 338 339 338 338 337 337 337 337 338 338 338 337 338 339 339 339 339 339
340 341 338 338 338 340 341 340 339 339 340 339 336 338 338 337 338 342 343 343 341 341 340 339 340 340 339 337 337 337 337 337 337 338 338 337 337 338 338 337 337 337 337
340 338 341 341 339 338 338 338 337 342 343 340 341 342 343 343 339 338 339 340 341 339 340 340 340 338 335 337 335 335 333 334 334 333 332 332 332 332 333 333 334 334 334
337 342 339 338 338 338 338 338 338 337 337 338 339 337 341 339 339 339 339 338 338 338 338 337 337 335 336 335 335 332 332 331 331 331 330 329 330 330 330 330 330 331 331
335 334 339 341 337 338 336 336 336 336 336 336 336 336 336 336 335 336 336 335 335 335 335 335 335 334 333 332 331 330 331 331 330 329 329 329 328 328 330 330 328 328 327
333 330 333 338 336 333 333 333 333 334 334 334 334 335 334 334 333 333 333 333 334 333 332 332 332 331 331 330 330 330 330 329 328 327 326 326 326 326 326 324 323 324 323
332 329 329 330 331 330 331 331 334 332 332 332 331 331 331 331 331 331 331 331 331 331 331 330 330 330 329 329 328 328 327 326 326 323 323 323 322 323 323 322 321 320 320
332 329 326 329 329 327 327 329 330 330 330 330 329 329 328 327 326 326 326 327 328 329 329 328 328 328 327 327 327 326 324 324 324 322 322 322 320 320 320 320 319 319 319
332 330 327 328 327 326 326 326 327 329 329 328 328 325 324 323 322 321 321 322 324 324 322 322 325 324 323 322 323 323 322 322 322 321 321 320 319 319 319 318 318 317 316
332 330 330 330 326 325 324 325 327 327 326 324 324 322 319 317 317 320 319 318 318 318 317 317 317 317 316 316 319 321 320 321 318 318 317 318 316 315 315 314 313 312 311
332 330 330 327 326 325 323 324 325 325 324 321 319 318 318 317 318 321 322 321 319 318 317 315 315 314 313 313 314 315 314 317 318 317 314 316 313 313 313 312 311 309 307
Wind_Speed
16 14 12 12 21 18 17 19 21 10 11 10 12 12 13 13 16 16 12 15 15 14 14 13 14 12 14 13 12 14 14 13 13 12 12 11 10 10 10 10 10 10 9
18 20 20 24 27 20 14 24 14 10 10 9 10 12 14 15 15 10 14 12 17 16 16 18 16 19 18 15 13 15 16 15 14 14 13 12 12 11 11 12 13 12 12
17 17 19 20 15 22 21 24 12 10 8 12 12 10 11 14 16 15 16 14 18 19 18 20 21 22 20 20 20 18 17 17 17 16 16 14 15 15 15 14 14 14 14
15 17 13 14 17 16 18 25 15 13 13 12 12 14 15 11 15 18 18 15 16 21 19 20 25 24 24 19 18 22 20 20 20 19 18 17 17 17 17 17 17 16 16
16 17 15 19 16 18 19 17 16 17 15 13 14 14 15 15 15 16 18 18 19 21 21 25 21 21 26 23 19 19 23 23 21 20 19 19 19 18 19 20 19 18 19
17 20 21 19 21 19 17 18 18 19 15 15 16 17 16 16 14 16 19 19 20 22 23 22 19 24 27 26 20 19 18 23 24 21 19 20 21 21 21 22 23 22 22
17 20 19 19 21 24 21 20 19 22 20 16 16 14 17 19 19 18 17 16 19 20 21 25 21 21 23 21 21 22 22 20 22 23 25 27 26 27 27 25 25 25 26
16 19 21 23 23 24 25 27 24 25 25 23 18 15 18 18 20 20 18 17 18 17 18 22 24 24 21 22 21 20 19 23 22 24 27 28 30 29 25 27 27 28 27
15 15 17 20 21 24 25 26 27 26 23 19 17 15 11 14 12 11 14 15 15 17 16 15 19 17 16 16 20 20 19 18 19 23 27 31 31 30 29 27 28 29 29
15 12 15 17 19 19 24 25 23 22 23 20 18 16 17 12 5 7 8 13 13 14 13 13 14 14 11 13 14 14 16 15 16 20 22 27 30 32 31 30 31 31 30
10 17 14 14 16 18 17 21 22 22 19 21 23 16 16 15 15 8 8 8 5 8 10 9 7 10 12 15 12 14 14 15 19 21 23 25 26 28 29 29 32 33 35
16 14 13 12 13 16 16 14 17 19 19 17 22 19 18 14 15 14 15 8 6 5 6 16 11 9 14 15 14 11 18 22 25 28 26 24 26 26 28 28 29 30 32
14 13 12 12 13 10 10 12 13 14 15 15 18 20 17 15 16 12 14 12 10 8 9 9 5 6 6 6 10 11 16 22 23 21 20 20 21 22 24 25 25 27 29
14 15 9 10 9 8 5 6 7 10 11 14 15 17 18 17 13 13 12 12 14 12 11 14 10 5 9 13 17 17 21 22 20 18 18 19 19 20 20 21 22 24 25
11 12 9 8 7 6 3 4 5 6 8 9 12 13 16 16 14 14 13 15 12 11 12 13 12 16 14 13 17 17 19 19 20 18 18 18 18 17 17 17 19 20 22
11 13 12 7 4 5 2 4 5 6 6 5 6 9 11 12 13 14 11 13 16 13 13 16 13 16 15 18 18 18 20 20 19 19 19 19 15 15 15 15 14 14 16
12 12 13 12 8 6 7 5 2 2 2 3 3 5 7 9 11 9 11 13 14 14 16 17 13 10 11 16 20 21 20 18 15 15 13 13 13 12 10 10 9 11 13
10 11 12 12 11 9 6 6 6 6 5 4 3 1 3 4 8 10 13 13 12 11 11 10 10 12 10 7 10 7 3 3 4 6 8 6 6 8 6 8 8 10 13
10 12 12 12 11 11 11 10 9 7 6 5 3 2 1 3 6 9 9 10 10 11 11 8 6 6 7 10 8 0 3 6 6 6 5 7 4 5 8 9 11 12 12
7 8 10 12 12 11 10 11 10 9 7 4 4 4 4 3 4 3 1 1 3 4 3 1 5 4 4 7 2 3 4 4 5 4 4 4 4 7 5 3 4 4 3
6 7 7 10 10 8 9 9 9 10 10 10 9 8 6 5 5 5 3 3 5 6 7 7 5 5 6 4 2 2 3 4 4 4 5 5 6 6 5 4 6 9 8
5 5 6 5 6 7 7 7 8 8 7 8 8 8 8 7 7 7 5 4 3 4 3 2 2 1 2 2 2 2 2 1 1 1 1 0 0 1 2 3 3 7 5
3 3 4 5 5 5 5 6 7 8 7 7 8 9 9 11 12 11 9 7 6 5 3 2 2 2 1 1 2 1 1 1 0 2 1 2 3 5 4 6 8 8 8
4 1 1 2 3 3 5 7 9 8 9 11 11 9 9 10 12 10 8 8 8 7 8 8 7 6 6 7 7 6 5 3 3 1 2 3 4 5 6 6 8 8 8
5 3 2 1 1 1 3 7 10 6 7 7 6 9 7 8 8 10 6 6 6 7 8 7 7 7 6 6 5 4 3 0 2 5 6 5 7 4 7 6 7 6 6
8 6 5 7 4 2 2 5 9 2 5 5 5 4 4 5 5 7 6 5 7 7 6 8 8 8 6 5 5 6 4 2 2 2 2 0 6 5 4 3 7 10 8
Wind_Direction
236 225 235 273 274 244 242 235 207 206 204 227 230 225 241 241 224 219 229 260 262 253 237 235 221 219 222 244 247 247 245 248 243 239 238 239 236 231 234 235 234 229 228
250 265 269 258 276 241 251 255 212 190 194 228 252 247 235 238 254 259 247 242 260 262 251 234 226 219 230 237 248 249 251 247 247 249 246 241 239 235 236 239 239 237 236
252 252 257 269 263 256 267 240 262 189 221 212 221 240 243 243 252 246 255 229 252 255 257 242 226 222 228 253 249 245 250 251 245 247 250 247 242 239 239 243 243 240 238
258 254 258 265 263 275 260 239 243 242 227 224 238 237 247 239 245 248 245 234 233 252 255 247 238 227 230 242 244 246 245 248 248 247 247 246 247 246 243 245 246 244 242
245 250 247 261 263 253 249 243 242 243 240 237 245 246 249 249 250 254 258 243 225 222 250 254 248 251 242 238 240 248 241 245 244 247 251 252 251 251 249 248 249 248 246
259 248 240 241 244 244 238 244 234 227 238 245 252 248 247 247 246 250 250 252 252 240 234 251 246 257 225 242 256 252 246 245 245 242 247 251 252 253 250 252 251 250 250
251 257 256 249 244 234 230 242 240 232 237 242 245 238 247 250 250 251 251 250 255 254 252 230 243 252 237 249 260 257 247 250 245 242 241 248 249 254 253 250 251 251 251
278 274 265 257 252 248 235 227 232 232 234 236 235 245 254 250 241 234 259 248 253 252 245 247 234 249 252 252 253 252 247 252 254 248 245 248 253 260 260 254 248 251 251
286 273 266 267 259 247 245 242 241 240 236 233 227 229 247 248 258 220 241 245 235 253 258 249 237 252 245 248 250 256 252 251 257 257 251 249 253 256 259 258 253 249 252
308 303 293 280 264 255 246 243 245 236 235 227 222 225 237 266 256 266 250 247 239 250 264 257 251 256 257 244 252 260 263 271 271 269 262 256 255 256 258 258 255 251 251
304 326 300 289 273 263 254 242 236 232 228 228 233 227 236 235 241 252 273 249 252 247 261 251 269 235 240 220 232 251 280 278 283 283 276 265 262 259 258 261 257 254 254
312 304 319 311 294 276 256 246 239 234 228 237 236 233 225 223 232 238 243 245 258 213 210 244 234 225 258 237 250 268 277 277 276 276 273 268 266 266 263 264 261 257 256
332 329 331 330 327 305 248 244 235 228 233 243 237 233 237 221 237 246 242 235 241 235 228 242 298 275 278 341 281 279 274 277 278 280 274 268 266 266 267 268 264 260 257
344 345 342 336 341 336 263 251 237 236 233 241 243 240 238 220 235 269 249 243 242 247 255 257 247 256 262 260 265 277 276 284 290 287 284 276 270 269 269 268 264 260 263
357 349 349 346 348 345 326 245 244 264 250 255 253 242 234 225 224 242 251 254 244 251 255 263 270 256 258 273 303 291 291 289 292 285 283 278 275 274 272 271 267 262 260
12 6 7 3 356 360 351 262 258 254 249 248 229 223 226 224 227 238 235 248 252 250 262 280 267 267 271 288 292 290 291 294 293 284 278 277 277 274 274 273 269 263 262
21 18 16 25 30 37 47 82 97 92 155 160 214 213 218 224 228 237 250 243 250 259 260 261 266 260 276 292 293 295 286 281 285 283 279 275 273 272 267 267 267 272 270
31 25 25 35 39 43 53 53 66 85 94 87 95 148 232 240 248 244 244 251 255 260 257 259 267 263 278 291 309 309 324 74 14 14 13 360 346 354 348 316 303 301 296
40 38 30 38 41 45 54 59 63 72 76 66 79 106 165 263 257 248 252 250 257 250 256 253 235 266 272 285 269 336 355 336 343 340 337 354 332 335 325 313 301 294 291
35 37 43 46 47 50 55 57 57 60 68 73 55 51 63 56 34 36 356 275 324 303 288 288 235 216 165 143 205 274 282 295 322 315 305 298 306 321 243 181 57 28 356
37 38 42 49 41 39 62 59 59 62 66 68 69 69 65 54 38 31 22 61 84 93 113 121 129 128 148 170 216 279 270 276 291 294 286 299 300 283 279 349 328 319 285
9 29 36 30 41 41 50 53 61 56 64 68 67 64 63 57 56 59 65 63 53 72 83 122 159 209 237 250 270 278 251 208 292 301 270 222 187 244 249 288 354 5 348
322 11 18 39 42 45 52 56 60 57 50 57 67 71 75 79 69 71 73 75 88 93 89 111 126 144 91 132 96 27 121 155 31 88 80 11 357 356 357 354 352 348 345
261 297 4 356 35 45 56 69 74 71 79 76 75 87 95 98 97 77 76 77 82 92 87 78 91 103 97 91 78 69 75 61 71 44 4 336 323 321 327 337 342 347 351
232 206 183 199 69 59 74 88 87 63 83 91 113 109 95 101 96 94 73 73 82 78 79 76 74 72 68 70 89 59 5 146 49 31 20 333 338 338 343 337 332 331 332
223 201 187 214 215 185 146 118 115 96 90 77 77 114 102 108 101 104 101 84 91 93 82 46 46 45 48 74 144 146 56 340 330 184 312 282 347 341 354 338 349 351 10